DELTA 1 DEB, 12193

Orbit data source: Space-Track

DELTA 1 DEB, 12193 is space debris in SSO originally from a launch on Sun, 05 Mar 1978 UTC launched from the Air Force Western Test Range (AFWTR). Debris objects in space refer to the collection of defunct objects orbiting the Earth. Examples of debris include non-operational satellites, rocket bodies, and fragments generated from explosions, collisions, or faulty payload assembly.

Loading next visibility...
Identifier
12193, 1978-026AJ
Orbit
SSO
Country
Flag of USUS
Related business
Manufacturer
Unknown
Mission
Spacecraft
Bus & Motor
Unknown
Mass
Unknown
Launch date (UTC)
1978-03-05 (48 years ago)
Launch vehicle
Unknown
Launch site
Air Force Western Test Range (AFWTR)
Object type
Payload
Rocket body
Debris
Shape & HBR
Unknown shape, 0.1 m
Radar Cross Section
Medium (>0.1 m² and <1 m²)

Expand to show TLE details & history
Last TLE update: 3 days ago

TLE from 3 days ago
0 DELTA 1 DEB
1 12193U 78026AJ  26171.01410348  .00002458  00000-0  16852-2 0  9990
2 12193  98.8459   4.3086 0236410 188.5794 171.1290 13.87841310251476
Epoch: 2026-06-20T00:20Z
TLE epoch observation values (Epoch: 2026-06-20T00:20:18.540Z)
Latitude
-0.00003°
Longitude
90.99654°
Altitude
1,110.05 km
Speed
7.212 km/s
True Right ascension
00h 17m 14s
True Declination
0° 00' 00"
Sunlit
Object was in daylight at epoch
Visualization orbit readout
Latitude
Unknown
Longitude
Unknown
Altitude
Unknown
Speed
Unknown
Apparent Right ascension
Unknown
Apparent Declination
Unknown
Sunlit
N/A
Visualization observer readout
Local Sidereal Time
03:48:12
Azimuth
Unknown
Elevation
Unknown
Doppler factor
Unknown
Orbital elements
Apogee altitude
1,106.264 km
Perigee altitude
760.559 km
Semi-major axis
7,311.549 km
Eccentricity
0.02364
Inclination
98.8459°
RAAN
4.3086°
Arg. of periapsis
188.5794°
True anomaly
171.5349°
Mean anomaly
171.129°
Eccentric anomaly
171.33311°
Mean motion
3.4716 °/min
Orbital period
103.7 mins
BSTAR
0.0016852
Loading maneuver chart data...
Computing Atmospheric mass density...

Documentation

Showing up to 5 results
|